This is the latest recevied weather packets stored in our database for station/object N2VUZ-1. If no packets are shown the sender has not sent any weather packets the latest 10 day(s).
| Time | Temp. | Humidity | Pressure | Rain* | Wind** | Luminosity | Snow |
|---|---|---|---|---|---|---|---|
| 1788194961 | 30° C | 69% | 1018 hPa | 0 mm | - | - | - |
| 1788194661 | 30.56° C | 67% | 1018 hPa | 0 mm | - | - | - |
| 1788194361 | 30.56° C | 66% | 1018.1 hPa | 0 mm | - | - | - |
| 1788194061 | 30.56° C | 68% | 1018.2 hPa | 0 mm | - | - | - |
| 1788193761 | 30.56° C | 69% | 1018.2 hPa | 0 mm | - | - | - |
| 1788193461 | 29.44° C | 71% | 1018.4 hPa | 0 mm | - | - | - |
| 1788193161 | 29.44° C | 69% | 1018.3 hPa | 0 mm | - | - | - |
| 1788192861 | 30° C | 69% | 1018.6 hPa | 0 mm | - | - | - |
| 1788192561 | 29.44° C | 71% | 1018.4 hPa | 0 mm | - | - | - |
| 1788192261 | 28.89° C | 73% | 1018.5 hPa | 0 mm | - | - | - |
| 1788191961 | 29.44° C | 71% | 1018.5 hPa | 0 mm | - | - | - |
| 1788191661 | 28.89° C | 72% | 1018.5 hPa | 0 mm | - | - | - |
| 1788191361 | 29.44° C | 72% | 1018.5 hPa | 0 mm | - | - | - |
| 1788191061 | 28.89° C | 74% | 1018.4 hPa | 0 mm | - | - | - |
| 1788190761 | 29.44° C | 73% | 1018.6 hPa | 0 mm | - | - | - |
| 1788190461 | 28.33° C | 75% | 1018.6 hPa | 0 mm | - | - | - |
| 1788190161 | 28.33° C | 75% | 1018.4 hPa | 0 mm | - | - | - |
| 1788189861 | 28.33° C | 77% | 1018.6 hPa | 0 mm | - | - | - |
| 1788189561 | 29.44° C | 75% | 1018.3 hPa | 0 mm | - | - | - |
| 1788189261 | 28.33° C | 78% | 1018.7 hPa | 0 mm | - | - | - |
| 1788188961 | 28.89° C | 75% | 1018.5 hPa | 0 mm | - | - | - |
| 1788188672 | 28.89° C | 75% | 1018.6 hPa | 0 mm | - | - | - |
| 1788188361 | 28.33° C | 78% | 1018.7 hPa | 0 mm | - | - | - |
| 1788188061 | 27.22° C | 80% | 1018.8 hPa | 0 mm | - | - | - |
| 1788187761 | 27.22° C | 81% | 1018.8 hPa | 0 mm | - | - | - |
* Rain latest hour (hover to see other rain measurements)
** Current wind speed in m/s (hover to see current wind gust speed)